"Pseudo-MPEC" for A115VyB

Created 2024 Apr 24 1:22:03 UT using Find_Orb

Click here for an explanation of pseudo-MPECs

 
 Astrometry: 
     A115VyB* C2024 04 178(V5_?DX;OgKfAstrometry60iFt7pL^?kAIy(T@61/u*S-y(4f-M22
     A115VyB  C2024 04 17WCWl[Msmcredacted;opcw$==:(j3Yw21S#e0AcggD:_qaIfXf=\M22
     A115VyB  C2024 04 17]4wf:gStejPmo(5XoVclickVdNKen]+2@hFhereqTa8-5VM%`Er0M22
     A115VyB  C2024 04 17(ahwE;ZMgyu$*-Dr.o'Iah^ocXo5hwforQWtoexplanationVj)]M22

Station data:
(M22) ATLAS South Africa, Sutherland  (S32.380156 E20.810590)  South Africa.
   Observers L. Denneau, R. Siverd, J. Tonry, H. Weiland. Measurers L.
   Denneau, N. Erasmus, A. Fitzsimmons, A. Lawrence, J. Robinson, R. Siverd,
   J. Tonry, H. Weiland. 0.5-m reflector + CCD.

Orbital elements:  A115VyB
   Perigee 2024 Apr 17.39489 +/- 0.0208 TT =  9:28:38 (JD 2460417.89489)
Epoch 2024 Apr 17.0 TT = JDT 2460417.5                           AutoNEOCP
M 234.88697237 +/- 15               (J2000 equator)
n 316.82738614 +/- 43.4             Peri.   13.90679 +/- 4.6
a 45996.1727 +/- 4196               Node    37.77329 +/- 0.8
e   0.7560948 +/- 0.0199            Incl.   12.16386 +/- 0.22
P1636.19m/1.136d           H 32.40  G  0.15   U 15.3
q 11218.7028 +/- 1663    Q 80773.6426 +/- 6986
From 4 observations 2024 Apr. 17 (31.1 min); mean residual 1".32
Residuals in arcseconds: 
240417 M22  .22-  .05+    240417 M22  2.7-  .59+    
240417 M22  .65+  .14-    240417 M22  2.3+  .49-    

Ephemerides (geocentric):
Date (UTC) HH   RA             Dec           delta  r     elong  mag " sig PA
---- --------  ------------   ------------  ------ ------ -----  --- --------
2024 04 24 01  17 50 58.369   -09 27 32.45   50282 1.0059 125.1 17.0  64d  98
2024 04 24 02  18 25 19.978   -10 30 17.49   42327 1.0058 116.9 16.9  69d  97
2024 04 24 03  19 18 13.245   -11 38 52.77   32816 1.0058 104.4 16.8  78d  94
2024 04 24 04  21 02 57.587   -12 06 04.71   21440 1.0057  79.5 16.8 101d  88
2024 04 24 05  02 35 18.649   +00 17 51.67   11282 1.0057  14.3 25?? 179d  71
2024 04 24 06  09 23 23.323   +11 54 05.12   19212 1.0058 105.2 15.6  80d  93
2024 04 24 07  11 26 24.754   +08 49 59.35   30895 1.0059 134.3 15.7  52d  98
2024 04 24 08  12 23 37.005   +06 27 47.31   40730 1.0060 147.6 16.0  40d 100
2024 04 24 09  12 59 31.964   +04 44 54.35   48942 1.0061 155.4 16.1  33d 101
2024 04 24 10  13 25 38.840   +03 25 13.92   55852 1.0061 160.5 16.3  29d 101
2024 04 24 11  13 46 20.001   +02 20 00.86   61683 1.0062 163.7 16.4  26d 102
2024 04 24 12  14 03 40.190   +01 24 22.33   66583 1.0063 165.5 16.5  24d 102
2024 04 24 13  14 18 47.864   +00 35 22.29   70659 1.0063 166.2 16.6  23d 102
2024 04 24 14  14 32 24.672   -00 08 52.78   73987 1.0063 165.9 16.7  22d 102
2024 04 24 15  14 44 58.108   -00 49 40.58   76619 1.0063 164.9 16.8  22d 102
2024 04 24 16  14 56 47.661   -01 27 57.33   78596 1.0064 163.5 16.9  22d 102
2024 04 24 17  15 08 08.110   -02 04 25.88   79945 1.0064 161.8 17.0  23d 102
2024 04 24 18  15 19 11.469   -02 39 40.67   80683 1.0064 159.9 17.1  24d 102
2024 04 24 19  15 30 08.253   -03 14 10.95   80821 1.0064 157.9 17.1  25d 102
2024 04 24 20  15 41 08.410   -03 48 23.14   80359 1.0064 155.7 17.2  28d 102
2024 04 24 21  15 52 22.145   -04 22 42.62   79292 1.0064 153.3 17.2  32d 102
2024 04 24 22  16 04 00.791   -04 57 35.46   77606 1.0064 150.8 17.3  40d 101
2024 04 24 23  16 16 17.909   -05 33 30.15   75278 1.0064 148.1 17.3  53d 101
2024 04 25 00  16 29 30.900   -06 10 59.78   72275 1.0064 145.1 17.3  90d 101
2024 04 25 01  16 44 03.632   -06 50 44.84   68550 1.0063 141.8 17.2 161d 100
2024 04 25 02  17 00 31.136   -07 33 37.19   64038 1.0063 138.0 17.2 105d 100
2024 04 25 03  17 19 48.805   -08 20 45.40   58650 1.0063 133.5 17.1  89d  99
2024 04 25 04  17 43 32.522   -09 13 39.90   52257 1.0062 127.9 17.0  83d  98
2024 04 25 05  18 14 49.413   -10 14 04.82   44674 1.0062 120.5 16.9  83d  97
2024 04 25 06  19 00 54.878   -11 21 55.70   35629 1.0061 109.6 16.8  88d  95
2024 04 25 07  20 24 20.551   -12 14 49.83   24772 1.0060  89.8 16.7 104d  91
2024 04 25 08  00 17 26.340   -06 45 26.75   13035 1.0060  34.8 19?? 158d  80
2024 04 25 09  08 16 04.890   +12 13 49.85   15863 1.0061  88.2 15.8  86d  89
2024 04 25 10  11 03 21.852   +09 39 08.06   27841 1.0062 127.8 15.7  48d  97
2024 04 25 11  12 11 12.014   +07 01 43.66   38191 1.0063 143.7 15.9  34d 100
2024 04 25 12  12 51 16.458   +05 09 38.42   46816 1.0064 152.6 16.1  26d 101
2024 04 25 13  13 19 29.210   +03 44 26.59   54061 1.0064 158.4 16.3  22d 101
2024 04 25 14  13 41 23.660   +02 35 40.56   60173 1.0065 162.2 16.4  19d 101
2024 04 25 15  13 59 30.410   +01 37 37.15   65319 1.0065 164.6 16.5 999' 102
2024 04 25 16  14 15 09.297   +00 46 54.40   69614 1.0066 165.8 16.6 906' 102
2024 04 25 17  14 29 07.662   +00 01 24.54   73142 1.0066 166.0 16.7 839' 102
2024 04 25 18  14 41 56.101   -00 40 18.53   75962 1.0066 165.4 16.8 791' 102
2024 04 25 19  14 53 55.892   -01 19 16.13   78117 1.0067 164.3 16.9 760' 102
2024 04 25 20  15 05 22.875   -01 56 14.35   79637 1.0067 162.8 17.0 743' 102
2024 04 25 21  15 16 29.676   -02 31 49.66   80543 1.0067 161.1 17.0 740' 102
2024 04 25 22  15 27 27.116   -03 06 32.54   80846 1.0067 159.1 17.1 751' 102
2024 04 25 23  15 38 25.214   -03 40 50.06   80549 1.0067 157.0 17.2 778' 101
2024 04 26 00  15 49 34.022   -04 15 07.74   79650 1.0067 154.8 17.2 825' 101